Regional Weather Roundup
Issued by NWS

Home | Current Version | Previous Version | Graphics & Text | Print | Product List | Glossary On
Versions: 1 2 3 4 5 6 7 8 9 10 11 12 13 14 15 16 17 18 19 20 21 22 23 24 25 26 27 28 29 30 31 32 33 34 35 36 37 38 39 40 41 42 43 44 45 46 47 48 49 50
000
ASUS43 KLSX 141857
RWRMO

WEATHER SUMMARY FOR MISSOURI
NATIONAL WEATHER SERVICE SPRINGFIELD MO
100 PM CST THU DEC 14 2017

NOTE: "FAIR" INDICATES FEW OR NO CLOUDS BELOW 12,000 FEET WITH NO
       SIGNIFICANT WEATHER AND/OR OBSTRUCTIONS TO VISIBILITY.
       CURRENT SKY AND/OR WEATHER CONDITIONS ARE NOT AVAILABLE FOR
       CHILLICOTHE AND FARMINGTON.

MOZ001>031-035>038-043-044-053-054-142000-
...NORTHERN AND WESTERN MISSOURI...

CITY           SKY/WX    TMP DP  RH WIND       PRES   REMARKS
KANSAS CTY INT CLOUDY    39  24  55 N10       30.08F
LEE`S SUMMIT   FLURRIES  38  25  59 NW8       30.08F
ST JOSEPH      CLOUDY    41  26  55 NW9       30.08F
CHILLICOTHE      N/A     34  22  61 CALM      30.09F

$$
MOZ066>068-077>081-088>096-101>105-142000-
...SOUTHWEST MISSOURI...

CITY           SKY/WX    TMP DP  RH WIND       PRES   REMARKS
SPRINGFIELD    CLOUDY    39  23  52 N13       30.06F
JOPLIN         CLOUDY    40  27  59 N7        30.11F
BRANSON        CLOUDY    39  21  48 NW9       30.07F

$$
MOZ032>034-039>042-045>050-055>058-069>072-142000-
...CENTRAL MISSOURI...

CITY           SKY/WX    TMP DP  RH WIND       PRES   REMARKS
COLUMBIA       NOT AVBL
JEFFERSON CITY CLOUDY    34  22  61 NE5       30.08F WCI  30
ROLLA          CLOUDY    34  23  64 NW6       30.04F WCI  29
SEDALIA        CLOUDY    36  24  62 NW9       30.09F WCI  29
WARRENSBURG    CLOUDY    37  23  56 NW3       30.09S

$$
MOZ051-052-059>065-142000-
...EAST CENTRAL MISSOURI...

CITY           SKY/WX    TMP DP  RH WIND       PRES   REMARKS
ST LOUIS INTL  CLOUDY    32  19  58 NW6       30.08F WCI  26

$$
MOZ072>076-082>087-097>100-106>115-142000-
...SOUTH CENTRAL AND SOUTHEAST MISSOURI...

CITY           SKY/WX    TMP DP  RH WIND       PRES   REMARKS
CAPE GIRARDEAU CLOUDY    35  21  56 VRB6      30.07F
POPLAR BLUFF   CLOUDY    42  22  44 N3        30.05F
WEST PLAINS    PTSUNNY   40  20  44 NW13      30.04F

$$


USA.gov is the U.S. government's official web portal to all federal, state and local government web resources and services.